Managua, Nicaragua

3:21 PM CST on May 23, 2018 (GMT -0600)
Augusto Cesar Sandino

Weather History for MNMG - November, 2012

Change the Weather History Date:

Monday, November 5, 2012

  Actual Average Record
Temperature  
Mean Temperature 80 °F -  
Max Temperature 89 °F 86 °F 91 °F (2014)
Min Temperature 71 °F 70 °F 71 °F (1997)
Cooling Degree Days 15    
Growing Degree Days 30 (Base 50)    
Moisture  
Dew Point 72 °F    
Average Humidity 78    
Maximum Humidity 94    
Minimum Humidity 55    
Precipitation  
Precipitation 0.00 in - - ()
Sea Level Pressure  
Sea Level Pressure 29.82 in    
Wind  
Wind Speed 3 mph ()    
Max Wind Speed 9 mph    
Max Gust Speed -    
Visibility 6.1 miles    
Events Rain    
Averages and records for this station are not official NWS values.
T = Trace of Precipitation, MM = Missing Value Source: Averaged Metar Reports

Daily Weather History Graph

Daily Weather History Graph

Search for Another Location

Airport or City:

Astronomy

Nov. 05, 2012 Rise Set
Actual Time 5:38 AM CST 5:17 PM CST
Civil Twilight 5:16 AM CST 5:39 PM CST
Nautical Twilight 4:51 AM CST 6:04 PM CST
Astronomical Twilight 4:26 AM CST 6:30 PM CST
Moon 10:52 PM CST (11/5) 10:55 AM CST (11/5)
Length of Visible Light 12h 22m
Length of Day
11h 38m
Waning Gibbous, 62% of the Moon is Illuminated
Nov 5
Waning Gibbous
Nov 6
Last Quarter
Nov 13
New
Nov 20
First Quarter
Nov 28
Full

Hourly Weather History & Observations

Time (CST) Temp. Heat Index Dew Point Humidity Pressure Visibility Wind Dir Wind Speed Gust Speed Precip Events Conditions
12:00 AM 75.2 °F - 71.6 °F 89% 29.86 in 6.2 mi Calm Calm - N/A   Partly Cloudy
1:00 AM 75.2 °F - 71.6 °F 89% 29.83 in 6.2 mi Calm Calm - N/A   Scattered Clouds
2:00 AM 75.2 °F - 71.6 °F 89% 29.83 in 6.2 mi Calm Calm - N/A   Scattered Clouds
3:00 AM 73.4 °F - 71.6 °F 94% 29.80 in 6.2 mi Calm Calm - N/A   Scattered Clouds
4:00 AM 73.4 °F - 71.6 °F 94% 29.80 in 6.2 mi Calm Calm - N/A   Scattered Clouds
5:00 AM 71.6 °F - 69.8 °F 94% 29.80 in 6.2 mi Calm Calm - N/A   Partly Cloudy
6:00 AM 71.6 °F - 69.8 °F 94% 29.83 in 6.2 mi Calm Calm - N/A   Partly Cloudy
7:00 AM 73.4 °F - 71.6 °F 94% 29.83 in 6.2 mi Calm Calm - N/A   Partly Cloudy
8:00 AM 80.6 °F 84.6 °F 71.6 °F 74% 29.86 in 6.2 mi East 6.9 mph - N/A   Partly Cloudy
9:00 AM 84.2 °F 89.6 °F 71.6 °F 66% 29.86 in 6.2 mi NE 9.2 mph - N/A   Partly Cloudy
10:00 AM 87.8 °F 93.8 °F 71.6 °F 58% 29.86 in 6.2 mi NNE 6.9 mph - N/A   Partly Cloudy
11:00 AM 87.8 °F 93.8 °F 71.6 °F 58% 29.86 in 6.2 mi ENE 6.9 mph - N/A   Scattered Clouds
12:00 PM 86.0 °F 91.8 °F 71.6 °F 62% 29.83 in 6.2 mi East 6.9 mph - N/A   Scattered Clouds
1:00 PM 89.6 °F 96.2 °F 71.6 °F 55% 29.80 in 6.2 mi East 6.9 mph - N/A   Scattered Clouds
2:00 PM 89.6 °F 98.2 °F 73.4 °F 59% 29.77 in 5.6 mi ESE 9.2 mph - N/A Rain Rain
2:04 PM - - - N/A% - 5.6 mi ENE 9.2 mph - N/A Rain Rain
2:10 PM - - - N/A% - 5.6 mi Calm Calm - N/A Rain Rain
3:00 PM 86.0 °F 95.1 °F 75.2 °F 70% 29.74 in 6.2 mi ENE 4.6 mph - N/A   Partly Cloudy
4:00 PM 84.2 °F 89.6 °F 71.6 °F 66% 29.77 in 6.2 mi NE 9.2 mph - N/A   Partly Cloudy
5:00 PM 84.2 °F 89.6 °F 71.6 °F 66% 29.80 in 6.2 mi ENE 6.9 mph - N/A   Scattered Clouds
6:00 PM 82.4 °F 87.2 °F 71.6 °F 70% 29.80 in 6.2 mi East 4.6 mph - N/A   Scattered Clouds
7:00 PM 78.8 °F - 75.2 °F 89% 29.83 in 6.2 mi East 4.6 mph - N/A   Scattered Clouds
8:00 PM 78.8 °F - 71.6 °F 78% 29.86 in 6.2 mi East 4.6 mph - N/A   Scattered Clouds
9:00 PM 77.0 °F - 71.6 °F 83% 29.86 in 6.2 mi ESE 4.6 mph - N/A   Scattered Clouds
10:00 PM 77.0 °F - 71.6 °F 83% 29.86 in 6.2 mi Calm Calm - N/A   Partly Cloudy
11:00 PM 75.2 °F - 71.6 °F 89% 29.86 in 6.2 mi Calm Calm - N/A   Partly Cloudy